Torna al catalogo

CXO

AttivoScienzaHEO
NORAD 25867·PAYLOAD·🇺🇸 United States

Lanciato Jul 23, 1999 da Cape Canaveral Space Force Station

Loading…

Prossimi Passaggi (prossime 24 ore)

TLE

AggiornatoSource: Space-Track

Epoca: Sep 16, 2026, 06:57 UTC

1 25867U 99040B   26259.29000158  .00000789  00000-0  00000-0 0  9993
2 25867  57.4112 114.2820 7693036 309.4077   0.3912  0.37803042 17664

Traccia CXO in tempo reale con AllMySat

Download on the App Store